Location: downtown San Diego
(32.7310°N, 117.1990°W)
Time: 08:06:07
(UTC-07:00)

ASTRO E2 - Pass Details

Date: 14 June 2018
Orbit: 512 x 519 km, 31.4° (Epoch: 17 September)

Event Time Altitude Azimuth Distance (km) Brightness Sun altitude
Rises 21:59:51 0° 274° (W) 2,613 7.0 -20.9°
Reaches altitude 10° 22:02:11 10° 266° (W) 1,728 5.8 -21.2°
Enters shadow 22:05:11 35° 224° (SW) 833 3.6 -21.7°
